When you browse on this site, cookies collect data to enhance your experience and personalize the content and advertising you see.
Visit our Privacy Policy to learn more. By continuing to use the site, you agree to this use of cookies and data.
  • En España
  • Lista de países
  • Para 7 días
  • Temperatura del agua
  • Mapa Satelital
  • El tiempo en el mapa
  • Informadores
  • user-avatar
    Iniciar sesión

    Tiempo cada hora Andora

    Hoy, 20 Enero, Domingo

    Tiempo Temperatura Precipitaciones Viento Presión Humedad
    00:00 -3°C° 0 mm 1 mps 615 mmHg 81%
    01:00 -2°C° 0.2 mm 1 mps 615 mmHg 84%
    02:00 -2°C° 0.2 mm 1 mps 615 mmHg 87%
    03:00 -2°C° 0.2 mm 1 mps 614 mmHg 91%
    04:00 -2°C° 0.1 mm 1 mps 615 mmHg 89%
    05:00 -2°C° 0.1 mm 1 mps 615 mmHg 87%
    06:00 -2°C° 0.1 mm 1 mps 615 mmHg 85%
    07:00 -1°C° 0 mm 1 mps 615 mmHg 79%
    08:00 -3°C° 0 mm 2 mps 616 mmHg 74%
    09:00 -2°C° 0 mm 2 mps 616 mmHg 69%
    10:00 -1°C° 0 mm 2 mps 617 mmHg 64%
    11:00 +1°C° 0 mm 2 mps 617 mmHg 58%
    12:00 +1°C° 0 mm 2 mps 618 mmHg 53%
    13:00 +1°C° 0 mm 2 mps 617 mmHg 55%
    14:00 +1°C° 0 mm 2 mps 617 mmHg 58%
    15:00 +1°C° 0 mm 2 mps 617 mmHg 60%
    16:00 -2°C° 0 mm 2 mps 617 mmHg 69%
    17:00 -3°C° 0 mm 2 mps 617 mmHg 78%
    18:00 -5°C° 0 mm 2 mps 617 mmHg 86%
    19:00 -5°C° 0.1 mm 2 mps 617 mmHg 87%
    20:00 -5°C° 0.1 mm 2 mps 618 mmHg 87%
    21:00 -5°C° 0.1 mm 2 mps 618 mmHg 87%
    22:00 -5°C° 0 mm 2 mps 618 mmHg 87%
    23:00 -5°C° 0 mm 2 mps 619 mmHg 87%

    Mañana, 21 Enero, Lunes

    Tiempo Temperatura Precipitaciones Viento Presión Humedad
    00:00 -5°C° 0 mm 2 mps 619 mmHg 86%
    01:00 -5°C° 0.1 mm 2 mps 619 mmHg 87%
    02:00 -5°C° 0.1 mm 2 mps 619 mmHg 87%
    03:00 -5°C° 0.1 mm 2 mps 619 mmHg 87%
    04:00 -5°C° 0.1 mm 2 mps 619 mmHg 87%
    05:00 -5°C° 0.1 mm 2 mps 619 mmHg 87%
    06:00 -5°C° 0.1 mm 2 mps 619 mmHg 87%
    07:00 -5°C° 0.2 mm 2 mps 620 mmHg 84%
    08:00 -5°C° 0.2 mm 3 mps 620 mmHg 80%
    09:00 -5°C° 0.2 mm 3 mps 621 mmHg 76%
    10:00 -4°C° 0.1 mm 3 mps 621 mmHg 72%
    11:00 -4°C° 0.1 mm 3 mps 621 mmHg 68%
    12:00 -2°C° 0.1 mm 3 mps 621 mmHg 64%
    13:00 -2°C° 0 mm 3 mps 621 mmHg 64%
    14:00 -4°C° 0 mm 3 mps 621 mmHg 64%
    15:00 -4°C° 0 mm 3 mps 621 mmHg 65%
    16:00 -5°C° 0 mm 3 mps 620 mmHg 71%
    17:00 -7°C° 0 mm 3 mps 620 mmHg 78%
    18:00 -7°C° 0 mm 2 mps 620 mmHg 84%
    19:00 -7°C° 0 mm 2 mps 620 mmHg 84%
    20:00 -8°C° 0 mm 2 mps 620 mmHg 84%
    21:00 -8°C° 0 mm 2 mps 620 mmHg 85%
    22:00 -8°C° 0 mm 2 mps 620 mmHg 84%
    23:00 -9°C° 0 mm 2 mps 619 mmHg 83%

    Pasado mañana, 22 Enero, Martes

    Tiempo Temperatura Precipitaciones Viento Presión Humedad
    00:00 -9°C° 0 mm 2 mps 619 mmHg 82%
    01:00 -9°C° 0 mm 2 mps 619 mmHg 76%
    02:00 -9°C° 0 mm 2 mps 618 mmHg 69%
    03:00 -10°C° 0 mm 2 mps 618 mmHg 63%
    04:00 -10°C° 0 mm 2 mps 617 mmHg 59%
    05:00 -10°C° 0 mm 2 mps 617 mmHg 55%
    06:00 -10°C° 0 mm 2 mps 617 mmHg 52%
    07:00 -8°C° 0 mm 2 mps 617 mmHg 49%
    08:00 -6°C° 0 mm 1 mps 617 mmHg 46%
    09:00 -3°C° 0 mm 1 mps 617 mmHg 42%
    10:00 -1°C° 0 mm 1 mps 617 mmHg 40%
    11:00 0°C° 0 mm 1 mps 617 mmHg 38%
    12:00 +2°C° 0 mm 1 mps 617 mmHg 36%
    13:00 0°C° 0.4 mm 1 mps 615 mmHg 49%
    14:00 -1°C° 0.4 mm 1 mps 614 mmHg 61%
    15:00 -2°C° 0.4 mm 1 mps 613 mmHg 74%
    16:00 -2°C° 0.5 mm 1 mps 612 mmHg 78%
    17:00 -5°C° 0.5 mm 2 mps 612 mmHg 82%
    18:00 -5°C° 0.5 mm 2 mps 611 mmHg 86%
    19:00 -5°C° 0.6 mm 2 mps 611 mmHg 87%
    20:00 -7°C° 0.6 mm 3 mps 611 mmHg 87%
    21:00 -7°C° 0.6 mm 3 mps 611 mmHg 87%
    22:00 -8°C° 1 mm 3 mps 611 mmHg 88%
    23:00 -8°C° 1 mm 3 mps 610 mmHg 89%

    23 Enero, Miércoles

    Tiempo Temperatura Precipitaciones Viento Presión Humedad
    00:00 -9°C° 1 mm 3 mps 610 mmHg 90%
    01:00 -11°C° 0.8 mm 4 mps 609 mmHg 90%
    02:00 -11°C° 0.8 mm 4 mps 609 mmHg 89%
    03:00 -12°C° 0.8 mm 4 mps 608 mmHg 89%
    04:00 -13°C° 0.4 mm 5 mps 608 mmHg 89%
    05:00 -13°C° 0.4 mm 5 mps 608 mmHg 88%
    06:00 -14°C° 0.4 mm 6 mps 608 mmHg 88%
    07:00 -14°C° 0.3 mm 6 mps 608 mmHg 86%
    08:00 -14°C° 0.3 mm 6 mps 609 mmHg 84%
    09:00 -14°C° 0.3 mm 6 mps 609 mmHg 81%
    10:00 -14°C° 0.3 mm 6 mps 609 mmHg 80%
    11:00 -14°C° 0.3 mm 7 mps 609 mmHg 79%
    12:00 -13°C° 0.3 mm 7 mps 609 mmHg 78%
    13:00 -14°C° 0.4 mm 7 mps 609 mmHg 79%
    14:00 -14°C° 0.4 mm 7 mps 609 mmHg 80%
    15:00 -15°C° 0.4 mm 8 mps 608 mmHg 81%
    16:00 -15°C° 0.3 mm 8 mps 609 mmHg 82%
    17:00 -15°C° 0.3 mm 8 mps 609 mmHg 83%
    18:00 -15°C° 0.3 mm 8 mps 609 mmHg 84%
    19:00 -16°C° 0.3 mm 8 mps 610 mmHg 85%
    20:00 -15°C° 0.3 mm 7 mps 610 mmHg 85%
    21:00 -15°C° 0.3 mm 7 mps 610 mmHg 85%
    22:00 -15°C° 0.1 mm 7 mps 610 mmHg 85%
    23:00 -15°C° 0.1 mm 7 mps 611 mmHg 84%

    24 Enero, Jueves

    Tiempo Temperatura Precipitaciones Viento Presión Humedad
    00:00 -15°C° 0.1 mm 6 mps 611 mmHg 84%
    01:00 -15°C° 0 mm 6 mps 611 mmHg 83%
    02:00 -15°C° 0 mm 6 mps 611 mmHg 83%
    03:00 -15°C° 0 mm 5 mps 611 mmHg 83%
    04:00 -15°C° 0 mm 5 mps 611 mmHg 83%
    05:00 -15°C° 0 mm 5 mps 612 mmHg 83%
    06:00 -15°C° 0 mm 5 mps 612 mmHg 83%
    07:00 -15°C° 0 mm 5 mps 613 mmHg 80%
    08:00 -14°C° 0 mm 5 mps 613 mmHg 78%
    09:00 -13°C° 0 mm 5 mps 614 mmHg 75%
    10:00 -12°C° 0 mm 5 mps 614 mmHg 73%
    11:00 -11°C° 0 mm 5 mps 615 mmHg 70%
    12:00 -10°C° 0 mm 5 mps 615 mmHg 68%
    13:00 -9°C° 0 mm 4 mps 615 mmHg 66%
    14:00 -9°C° 0 mm 4 mps 615 mmHg 65%
    15:00 -9°C° 0 mm 4 mps 614 mmHg 63%
    16:00 -12°C° 0 mm 4 mps 614 mmHg 67%
    17:00 -14°C° 0 mm 3 mps 613 mmHg 71%
    18:00 -16°C° 0 mm 3 mps 612 mmHg 75%
    19:00 -15°C° 0.1 mm 3 mps 613 mmHg 78%
    20:00 -14°C° 0.1 mm 3 mps 614 mmHg 80%
    21:00 -13°C° 0.1 mm 3 mps 614 mmHg 83%
    22:00 -12°C° 0.3 mm 3 mps 615 mmHg 84%
    23:00 -10°C° 0.3 mm 3 mps 615 mmHg 84%

    25 Enero, Viernes

    Tiempo Temperatura Precipitaciones Viento Presión Humedad
    00:00 -8°C° 0.3 mm 3 mps 615 mmHg 85%
    01:00 -8°C° 0.3 mm 3 mps 615 mmHg 85%
    02:00 -8°C° 0.3 mm 4 mps 615 mmHg 85%
    03:00 -8°C° 0.3 mm 4 mps 615 mmHg 86%
    04:00 -8°C° 0.2 mm 4 mps 616 mmHg 86%
    05:00 -10°C° 0.2 mm 5 mps 616 mmHg 86%
    06:00 -10°C° 0.2 mm 5 mps 616 mmHg 86%
    07:00 -10°C° 0.1 mm 5 mps 617 mmHg 83%
    08:00 -10°C° 0.1 mm 5 mps 617 mmHg 81%
    09:00 -8°C° 0.1 mm 5 mps 618 mmHg 78%
    10:00 -8°C° 0 mm 5 mps 618 mmHg 77%
    11:00 -8°C° 0 mm 5 mps 619 mmHg 75%
    12:00 -7°C° 0 mm 5 mps 619 mmHg 73%
    13:00 -7°C° 0 mm 5 mps 619 mmHg 73%
    14:00 -7°C° 0 mm 5 mps 619 mmHg 73%
    15:00 -7°C° 0 mm 5 mps 619 mmHg 72%
    16:00 -9°C° 0 mm 4 mps 619 mmHg 76%
    17:00 -11°C° 0 mm 4 mps 619 mmHg 79%
    18:00 -12°C° 0 mm 4 mps 619 mmHg 82%
    19:00 -12°C° 0 mm 4 mps 619 mmHg 81%
    20:00 -14°C° 0 mm 4 mps 619 mmHg 80%
    21:00 -13°C° 0 mm 3 mps 620 mmHg 79%
    22:00 -13°C° 0 mm 3 mps 620 mmHg 77%
    23:00 -13°C° 0 mm 3 mps 620 mmHg 75%
    Mostrar más